This is the latest recevied weather packets stored in our database for station/object YF9UAG-15. If no packets are shown the sender has not sent any weather packets the latest 10 day(s).
| Time | Temp. | Humidity | Pressure | Rain* | Wind** | Luminosity | Snow |
|---|---|---|---|---|---|---|---|
| 1777604777 | 32.22° C | 89% | 1007 hPa | - | - | - | - |
| 1777604656 | 31.67° C | 89% | 1007.1 hPa | - | - | - | - |
| 1777604535 | 32.22° C | 86% | 1007.1 hPa | - | - | - | - |
| 1777604414 | 32.22° C | 86% | 1007.1 hPa | - | - | - | - |
| 1777604293 | 32.22° C | 87% | 1007.2 hPa | - | - | - | - |
| 1777604172 | 32.78° C | 86% | 1007.2 hPa | - | - | - | - |
| 1777604051 | 32.22° C | 89% | 1007.2 hPa | - | - | - | - |
| 1777603930 | 32.22° C | 85% | 1007.2 hPa | - | - | - | - |
| 1777603809 | 32.78° C | 85% | 1007.2 hPa | - | - | - | - |
| 1777603689 | 32.78° C | 85% | 1007.3 hPa | - | - | - | - |
| 1777603568 | 32.78° C | 85% | 1007.3 hPa | - | - | - | - |
| 1777603447 | 32.78° C | 87% | 1007.3 hPa | - | - | - | - |
| 1777603326 | 32.22° C | 87% | 1007.3 hPa | - | - | - | - |
| 1777603205 | 32.22° C | 88% | 1007.4 hPa | - | - | - | - |
| 1777603082 | 32.78° C | 86% | 1007.3 hPa | - | - | - | - |
| 1777602961 | 32.78° C | 87% | 1007.5 hPa | - | - | - | - |
| 1777602840 | 32.78° C | 86% | 1007.5 hPa | - | - | - | - |
| 1777602720 | 32.78° C | 86% | 1007.6 hPa | - | - | - | - |
| 1777602599 | 32.78° C | 85% | 1007.6 hPa | - | - | - | - |
| 1777602478 | 32.78° C | 87% | 1007.7 hPa | - | - | - | - |
| 1777602357 | 32.22° C | 87% | 1007.5 hPa | - | - | - | - |
| 1777602236 | 32.22° C | 89% | 1007.6 hPa | - | - | - | - |
| 1777602115 | 32.22° C | 87% | 1007.8 hPa | - | - | - | - |
| 1777601994 | 32.22° C | 85% | 1007.7 hPa | - | - | - | - |
| 1777601873 | 32.22° C | 86% | 1007.8 hPa | - | - | - | - |
* Rain since midnight (hover to see other rain measurements)
** Current wind speed in m/s (hover to see current wind gust speed)